Year,Month,Day,Hour,Minute,Value (Times are PST for temperature in C)
2007,06,25,00,00,9.80
2007,06,25,00,01,9.80
2007,06,25,00,02,9.80
2007,06,25,00,03,9.80
2007,06,25,00,04,9.80
2007,06,25,00,05,9.70
2007,06,25,00,06,9.70
2007,06,25,00,07,9.70
2007,06,25,00,08,9.70
2007,06,25,00,09,9.70
2007,06,25,00,10,9.70
2007,06,25,00,11,9.70
2007,06,25,00,12,9.70
2007,06,25,00,13,9.60
2007,06,25,00,14,9.60
2007,06,25,00,15,9.60
2007,06,25,00,16,9.60
2007,06,25,00,17,9.60
2007,06,25,00,18,9.50
2007,06,25,00,19,9.50
2007,06,25,00,20,9.50
2007,06,25,00,21,9.50
2007,06,25,00,22,9.50
2007,06,25,00,23,9.50
2007,06,25,00,24,9.60
2007,06,25,00,25,9.60
2007,06,25,00,26,9.60
2007,06,25,00,27,9.50
2007,06,25,00,28,9.50
2007,06,25,00,29,9.50
2007,06,25,00,30,9.50
2007,06,25,00,31,9.50
2007,06,25,00,32,9.50
2007,06,25,00,33,9.50
2007,06,25,00,34,9.50
2007,06,25,00,35,9.60
2007,06,25,00,36,9.60
2007,06,25,00,37,9.60
2007,06,25,00,38,9.60
2007,06,25,00,39,9.60
2007,06,25,00,40,9.60
2007,06,25,00,41,9.60
2007,06,25,00,42,9.60
2007,06,25,00,43,9.60
2007,06,25,00,44,9.50
2007,06,25,00,45,9.50
2007,06,25,00,46,9.50
2007,06,25,00,47,9.50
2007,06,25,00,48,9.50
2007,06,25,00,49,9.50
2007,06,25,00,50,9.50
2007,06,25,00,51,9.50
2007,06,25,00,52,9.50
2007,06,25,00,53,9.50
2007,06,25,00,54,9.50
2007,06,25,00,55,9.50
2007,06,25,00,56,9.40
2007,06,25,00,57,9.40
2007,06,25,00,58,9.40
2007,06,25,00,59,9.30
2007,06,25,01,00,9.30
2007,06,25,01,01,9.30
2007,06,25,01,02,9.30
2007,06,25,01,03,9.30
2007,06,25,01,04,9.30
2007,06,25,01,05,9.30
2007,06,25,01,06,9.20
2007,06,25,01,07,9.20
2007,06,25,01,08,9.20
2007,06,25,01,09,9.20
2007,06,25,01,10,9.20
2007,06,25,01,11,9.20
2007,06,25,01,12,9.30
2007,06,25,01,13,9.20
2007,06,25,01,14,9.20
2007,06,25,01,15,9.20
2007,06,25,01,16,9.20
2007,06,25,01,17,9.20
2007,06,25,01,18,9.20
2007,06,25,01,19,9.20
2007,06,25,01,20,9.10
2007,06,25,01,21,9.10
2007,06,25,01,22,9.10
2007,06,25,01,23,9.10
2007,06,25,01,24,9.00
2007,06,25,01,25,9.00
2007,06,25,01,26,9.00
2007,06,25,01,27,8.90
2007,06,25,01,28,8.90
2007,06,25,01,29,8.90
2007,06,25,01,30,8.80
2007,06,25,01,31,8.80
2007,06,25,01,32,8.80
2007,06,25,01,33,8.70
2007,06,25,01,34,8.70
2007,06,25,01,35,8.70
2007,06,25,01,36,8.70
2007,06,25,01,37,8.70
2007,06,25,01,38,8.60
2007,06,25,01,39,8.60
2007,06,25,01,40,8.60
2007,06,25,01,41,8.60
2007,06,25,01,42,8.50
2007,06,25,01,43,8.50
2007,06,25,01,44,8.50
2007,06,25,01,45,8.50
2007,06,25,01,46,8.40
2007,06,25,01,47,8.40
2007,06,25,01,48,8.40
2007,06,25,01,49,8.40
2007,06,25,01,50,8.30
2007,06,25,01,51,8.30
2007,06,25,01,52,8.30
2007,06,25,01,53,8.30
2007,06,25,01,54,8.30
2007,06,25,01,55,8.30
2007,06,25,01,56,8.40
2007,06,25,01,57,8.40
2007,06,25,01,58,8.40
2007,06,25,01,59,8.40
2007,06,25,02,00,8.40
2007,06,25,02,01,8.40
2007,06,25,02,02,8.40
2007,06,25,02,03,8.40
2007,06,25,02,04,8.40
2007,06,25,02,05,8.40
2007,06,25,02,06,8.40
2007,06,25,02,07,8.40
2007,06,25,02,08,8.40
2007,06,25,02,09,8.30
2007,06,25,02,10,8.30
2007,06,25,02,11,8.20
2007,06,25,02,12,8.20
2007,06,25,02,13,8.20
2007,06,25,02,14,8.10
2007,06,25,02,15,8.10
2007,06,25,02,16,8.10
2007,06,25,02,17,8.00
2007,06,25,02,18,8.10
2007,06,25,02,19,8.10
2007,06,25,02,20,8.00
2007,06,25,02,21,8.10
2007,06,25,02,22,8.00
2007,06,25,02,23,8.00
2007,06,25,02,24,8.00
2007,06,25,02,25,7.90
2007,06,25,02,26,7.90
2007,06,25,02,27,7.90
2007,06,25,02,28,7.80
2007,06,25,02,29,7.80
2007,06,25,02,30,7.80
2007,06,25,02,31,7.80
2007,06,25,02,32,7.80
2007,06,25,02,33,7.70
2007,06,25,02,34,7.70
2007,06,25,02,35,7.70
2007,06,25,02,36,7.70
2007,06,25,02,37,7.70
2007,06,25,02,38,7.70
2007,06,25,02,39,7.70
2007,06,25,02,40,7.60
2007,06,25,02,41,7.60
2007,06,25,02,42,7.60
2007,06,25,02,43,7.60
2007,06,25,02,44,7.60
2007,06,25,02,45,7.50
2007,06,25,02,46,7.50
2007,06,25,02,47,7.50
2007,06,25,02,48,7.40
2007,06,25,02,49,7.40
2007,06,25,02,50,7.40
2007,06,25,02,51,7.40
2007,06,25,02,52,7.40
2007,06,25,02,53,7.40
2007,06,25,02,54,7.40
2007,06,25,02,55,7.40
2007,06,25,02,56,7.40
2007,06,25,02,57,7.40
2007,06,25,02,58,7.40
2007,06,25,02,59,7.30
2007,06,25,03,00,7.30
2007,06,25,03,01,7.30
2007,06,25,03,02,7.30
2007,06,25,03,03,7.20
2007,06,25,03,04,7.20
2007,06,25,03,05,7.20
2007,06,25,03,06,7.20
2007,06,25,03,07,7.20
2007,06,25,03,08,7.20
2007,06,25,03,09,7.20
2007,06,25,03,10,7.20
2007,06,25,03,11,7.20
2007,06,25,03,12,7.20
2007,06,25,03,13,7.20
2007,06,25,03,14,7.20
2007,06,25,03,15,7.20
2007,06,25,03,16,7.20
2007,06,25,03,17,7.20
2007,06,25,03,18,7.20
2007,06,25,03,19,7.20
2007,06,25,03,20,7.20
2007,06,25,03,21,7.20
2007,06,25,03,22,7.20
2007,06,25,03,23,7.20
2007,06,25,03,24,7.20
2007,06,25,03,25,7.20
2007,06,25,03,26,7.10
2007,06,25,03,27,7.10
2007,06,25,03,28,7.10
2007,06,25,03,29,7.00
2007,06,25,03,30,7.00
2007,06,25,03,31,6.90
2007,06,25,03,32,6.90
2007,06,25,03,33,6.90
2007,06,25,03,34,6.80
2007,06,25,03,35,6.80
2007,06,25,03,36,6.80
2007,06,25,03,37,6.80
2007,06,25,03,38,6.80
2007,06,25,03,39,6.80
2007,06,25,03,40,6.80
2007,06,25,03,41,6.80
2007,06,25,03,42,6.80
2007,06,25,03,43,6.80
2007,06,25,03,44,6.80
2007,06,25,03,45,6.80
2007,06,25,03,46,6.80
2007,06,25,03,47,6.80
2007,06,25,03,48,6.80
2007,06,25,03,49,6.80
2007,06,25,03,50,6.80
2007,06,25,03,51,6.80
2007,06,25,03,52,6.70
2007,06,25,03,53,6.70
2007,06,25,03,54,6.70
2007,06,25,03,55,6.60
2007,06,25,03,56,6.60
2007,06,25,03,57,6.60
2007,06,25,03,58,6.60
2007,06,25,03,59,6.50
2007,06,25,04,00,6.50
2007,06,25,04,01,6.50
2007,06,25,04,02,6.40
2007,06,25,04,03,6.40
2007,06,25,04,04,6.40
2007,06,25,04,05,6.40
2007,06,25,04,06,6.40
2007,06,25,04,07,6.40
2007,06,25,04,08,6.40
2007,06,25,04,09,6.40
2007,06,25,04,10,6.40
2007,06,25,04,11,6.40
2007,06,25,04,12,6.50
2007,06,25,04,13,6.50
2007,06,25,04,14,6.60
2007,06,25,04,15,6.60
2007,06,25,04,16,6.60
2007,06,25,04,17,6.60
2007,06,25,04,18,6.60
2007,06,25,04,19,6.60
2007,06,25,04,20,6.60
2007,06,25,04,21,6.60
2007,06,25,04,22,6.60
2007,06,25,04,23,6.60
2007,06,25,04,24,6.60
2007,06,25,04,25,6.60
2007,06,25,04,26,6.60
2007,06,25,04,27,6.60
2007,06,25,04,28,6.60
2007,06,25,04,29,6.60
2007,06,25,04,30,6.60
2007,06,25,04,31,6.60
2007,06,25,04,32,6.60
2007,06,25,04,33,6.70
2007,06,25,04,34,6.70
2007,06,25,04,35,6.70
2007,06,25,04,36,6.70
2007,06,25,04,37,6.70
2007,06,25,04,38,6.70
2007,06,25,04,39,6.80
2007,06,25,04,40,6.80
2007,06,25,04,41,6.80
2007,06,25,04,42,6.80
2007,06,25,04,43,6.80
2007,06,25,04,44,6.80
2007,06,25,04,45,6.80
2007,06,25,04,46,6.80
2007,06,25,04,47,6.90
2007,06,25,04,48,6.90
2007,06,25,04,49,6.90
2007,06,25,04,50,6.90
2007,06,25,04,51,6.90
2007,06,25,04,52,6.90
2007,06,25,04,53,6.90
2007,06,25,04,54,6.90
2007,06,25,04,55,6.90
2007,06,25,04,56,6.90
2007,06,25,04,57,6.90
2007,06,25,04,58,6.90
2007,06,25,04,59,7.00
2007,06,25,05,00,7.00
2007,06,25,05,01,7.00
2007,06,25,05,02,7.00
2007,06,25,05,03,7.10
2007,06,25,05,04,7.10
2007,06,25,05,05,7.10
2007,06,25,05,06,7.10
2007,06,25,05,07,7.20
2007,06,25,05,08,7.20
2007,06,25,05,09,7.20
2007,06,25,05,10,7.30
2007,06,25,05,11,7.30
2007,06,25,05,12,7.40
2007,06,25,05,13,7.50
2007,06,25,05,14,7.50
2007,06,25,05,15,7.60
2007,06,25,05,16,7.60
2007,06,25,05,17,7.70
2007,06,25,05,18,7.70
2007,06,25,05,19,7.70
2007,06,25,05,20,7.80
2007,06,25,05,21,7.80
2007,06,25,05,22,7.90
2007,06,25,05,23,8.00
2007,06,25,05,24,8.00
2007,06,25,05,25,8.10
2007,06,25,05,26,8.10
2007,06,25,05,27,8.20
2007,06,25,05,28,8.20
2007,06,25,05,29,8.20
2007,06,25,05,30,8.20
2007,06,25,05,31,8.20
2007,06,25,05,32,8.20
2007,06,25,05,33,8.30
2007,06,25,05,34,8.30
2007,06,25,05,35,8.30
2007,06,25,05,36,8.30
2007,06,25,05,37,8.30
2007,06,25,05,38,8.30
2007,06,25,05,39,8.40
2007,06,25,05,40,8.40
2007,06,25,05,41,8.40
2007,06,25,05,42,8.50
2007,06,25,05,43,8.50
2007,06,25,05,44,8.60
2007,06,25,05,45,8.60
2007,06,25,05,46,8.60
2007,06,25,05,47,8.60
2007,06,25,05,48,8.60
2007,06,25,05,49,8.60
2007,06,25,05,50,8.60
2007,06,25,05,51,8.60
2007,06,25,05,52,8.60
2007,06,25,05,53,8.60
2007,06,25,05,54,8.60
2007,06,25,05,55,8.60
2007,06,25,05,56,8.60
2007,06,25,05,57,8.60
2007,06,25,05,58,8.60
2007,06,25,05,59,8.60
2007,06,25,06,00,8.60
2007,06,25,06,01,8.60
2007,06,25,06,02,8.60
2007,06,25,06,03,8.60
2007,06,25,06,04,8.60
2007,06,25,06,05,8.70
2007,06,25,06,06,8.70
2007,06,25,06,07,8.70
2007,06,25,06,08,8.70
2007,06,25,06,09,8.70
2007,06,25,06,10,8.80
2007,06,25,06,11,8.80
2007,06,25,06,12,8.80
2007,06,25,06,13,8.80
2007,06,25,06,14,8.80
2007,06,25,06,15,8.80
2007,06,25,06,16,8.90
2007,06,25,06,17,8.90
2007,06,25,06,18,8.90
2007,06,25,06,19,8.90
2007,06,25,06,20,9.00
2007,06,25,06,21,9.00
2007,06,25,06,22,9.10
2007,06,25,06,23,9.10
2007,06,25,06,24,9.10
2007,06,25,06,25,9.20
2007,06,25,06,26,9.20
2007,06,25,06,27,9.20
2007,06,25,06,28,9.30
2007,06,25,06,29,9.30
2007,06,25,06,30,9.30
2007,06,25,06,31,9.30
2007,06,25,06,32,9.30
2007,06,25,06,33,9.40
2007,06,25,06,34,9.40
2007,06,25,06,35,9.40
2007,06,25,06,36,9.40
2007,06,25,06,37,9.40
2007,06,25,06,38,9.40
2007,06,25,06,39,9.40
2007,06,25,06,40,9.40
2007,06,25,06,41,9.40
2007,06,25,06,42,9.50
2007,06,25,06,43,9.50
2007,06,25,06,44,9.50
2007,06,25,06,45,9.60
2007,06,25,06,46,9.60
2007,06,25,06,47,9.60
2007,06,25,06,48,9.60
2007,06,25,06,49,9.60
2007,06,25,06,50,9.70
2007,06,25,06,51,9.70
2007,06,25,06,52,9.80
2007,06,25,06,53,9.80
2007,06,25,06,54,9.80
2007,06,25,06,55,9.90
2007,06,25,06,56,9.90
2007,06,25,06,57,10.00
2007,06,25,06,58,10.00
2007,06,25,06,59,10.10
2007,06,25,07,00,10.10
2007,06,25,07,01,10.20
2007,06,25,07,02,10.20
2007,06,25,07,03,10.30
2007,06,25,07,04,10.30
2007,06,25,07,05,10.30
2007,06,25,07,06,10.40
2007,06,25,07,07,10.40
2007,06,25,07,08,10.40
2007,06,25,07,09,10.40
2007,06,25,07,10,10.40
2007,06,25,07,11,10.40
2007,06,25,07,12,10.40
2007,06,25,07,13,10.50
2007,06,25,07,14,10.50
2007,06,25,07,15,10.60
2007,06,25,07,16,10.60
2007,06,25,07,17,10.70
2007,06,25,07,18,10.70
2007,06,25,07,19,10.70
2007,06,25,07,20,10.80
2007,06,25,07,21,10.80
2007,06,25,07,22,10.90
2007,06,25,07,23,11.00
2007,06,25,07,24,11.00
2007,06,25,07,25,11.10
2007,06,25,07,26,11.10
2007,06,25,07,27,11.20
2007,06,25,07,28,11.30
2007,06,25,07,29,11.40
2007,06,25,07,30,11.40
2007,06,25,07,31,11.50
2007,06,25,07,32,11.50
2007,06,25,07,33,11.60
2007,06,25,07,34,11.70
2007,06,25,07,35,11.80
2007,06,25,07,36,11.90
2007,06,25,07,37,12.00
2007,06,25,07,38,12.10
2007,06,25,07,39,12.20
2007,06,25,07,40,12.30
2007,06,25,07,41,12.30
2007,06,25,07,42,12.40
2007,06,25,07,43,12.40
2007,06,25,07,44,12.50
2007,06,25,07,45,12.60
2007,06,25,07,46,12.60
2007,06,25,07,47,12.70
2007,06,25,07,48,12.70
2007,06,25,07,49,12.70
2007,06,25,07,50,12.70
2007,06,25,07,51,12.70
2007,06,25,07,52,12.70
2007,06,25,07,53,12.70
2007,06,25,07,54,12.70
2007,06,25,07,55,12.70
2007,06,25,07,56,12.70
2007,06,25,07,57,12.70
2007,06,25,07,58,12.70
2007,06,25,07,59,12.80
2007,06,25,08,00,12.90
2007,06,25,08,01,13.10
2007,06,25,08,02,13.20
2007,06,25,08,03,13.30
2007,06,25,08,04,13.40
2007,06,25,08,05,13.40
2007,06,25,08,06,13.50
2007,06,25,08,07,13.50
2007,06,25,08,08,13.50
2007,06,25,08,09,13.50
2007,06,25,08,10,13.60
2007,06,25,08,11,13.60
2007,06,25,08,12,13.60
2007,06,25,08,13,13.70
2007,06,25,08,14,13.80
2007,06,25,08,15,13.90
2007,06,25,08,16,13.90
2007,06,25,08,17,14.00
2007,06,25,08,18,14.00
2007,06,25,08,19,13.90
2007,06,25,08,20,13.90
2007,06,25,08,21,13.90
2007,06,25,08,22,14.00
2007,06,25,08,23,14.10
2007,06,25,08,24,14.10
2007,06,25,08,25,14.10
2007,06,25,08,26,14.10
2007,06,25,08,27,14.10
2007,06,25,08,28,14.10
2007,06,25,08,29,14.20
2007,06,25,08,30,14.30
2007,06,25,08,31,14.30
2007,06,25,08,32,14.30
2007,06,25,08,33,14.30
2007,06,25,08,34,14.30
2007,06,25,08,35,14.30
2007,06,25,08,36,14.30
2007,06,25,08,37,14.30
2007,06,25,08,38,14.20
2007,06,25,08,39,14.20
2007,06,25,08,40,14.20
2007,06,25,08,41,14.20
2007,06,25,08,42,14.20
2007,06,25,08,43,14.10
2007,06,25,08,44,14.00
2007,06,25,08,45,14.00
2007,06,25,08,46,14.10
2007,06,25,08,47,14.10
2007,06,25,08,48,14.10
2007,06,25,08,49,14.10
2007,06,25,08,50,14.10
2007,06,25,08,51,14.10
2007,06,25,08,52,14.10
2007,06,25,08,53,14.10
2007,06,25,08,54,14.10
2007,06,25,08,55,14.10
2007,06,25,08,56,14.10
2007,06,25,08,57,14.10
2007,06,25,08,58,14.10
2007,06,25,08,59,14.00
2007,06,25,09,00,14.00
2007,06,25,09,01,14.00
2007,06,25,09,02,14.00
2007,06,25,09,03,14.00
2007,06,25,09,04,14.00
2007,06,25,09,05,13.90
2007,06,25,09,06,13.80
2007,06,25,09,07,13.80
2007,06,25,09,08,13.80
2007,06,25,09,09,13.80
2007,06,25,09,10,13.80
2007,06,25,09,11,13.80
2007,06,25,09,12,13.80
2007,06,25,09,13,13.80
2007,06,25,09,14,13.80
2007,06,25,09,15,13.80
2007,06,25,09,16,13.70
2007,06,25,09,17,13.70
2007,06,25,09,18,13.60
2007,06,25,09,19,13.50
2007,06,25,09,20,13.50
2007,06,25,09,21,13.40
2007,06,25,09,22,13.40
2007,06,25,09,23,13.40
2007,06,25,09,24,13.50
2007,06,25,09,25,13.40
2007,06,25,09,26,13.40
2007,06,25,09,27,13.40
2007,06,25,09,28,13.40
2007,06,25,09,29,13.40
2007,06,25,09,30,13.40
2007,06,25,09,31,13.50
2007,06,25,09,32,13.50
2007,06,25,09,33,13.50
2007,06,25,09,34,13.50
2007,06,25,09,35,13.50
2007,06,25,09,36,13.50
2007,06,25,09,37,13.70
2007,06,25,09,38,14.00
2007,06,25,09,39,14.10
2007,06,25,09,40,14.20
2007,06,25,09,41,14.30
2007,06,25,09,42,14.20
2007,06,25,09,43,14.20
2007,06,25,09,44,14.20
2007,06,25,09,45,14.20
2007,06,25,09,46,14.20
2007,06,25,09,47,14.30
2007,06,25,09,48,14.50
2007,06,25,09,49,14.60
2007,06,25,09,50,14.70
2007,06,25,09,51,14.80
2007,06,25,09,52,15.00
2007,06,25,09,53,15.00
2007,06,25,09,54,15.00
2007,06,25,09,55,15.00
2007,06,25,09,56,15.00
2007,06,25,09,57,15.00
2007,06,25,09,58,15.00
2007,06,25,09,59,15.00
2007,06,25,10,00,15.00
2007,06,25,10,01,15.00
2007,06,25,10,02,15.00
2007,06,25,10,03,15.00
2007,06,25,10,04,15.00
2007,06,25,10,05,15.00
2007,06,25,10,06,15.10
2007,06,25,10,07,15.20
2007,06,25,10,08,15.20
2007,06,25,10,09,15.10
2007,06,25,10,10,15.00
2007,06,25,10,11,15.00
2007,06,25,10,12,15.00
2007,06,25,10,13,15.00
2007,06,25,10,14,15.00
2007,06,25,10,15,15.00
2007,06,25,10,16,15.00
2007,06,25,10,17,14.90
2007,06,25,10,18,14.70
2007,06,25,10,19,14.60
2007,06,25,10,20,14.60
2007,06,25,10,21,14.60
2007,06,25,10,22,14.60
2007,06,25,10,23,14.50
2007,06,25,10,24,14.50
2007,06,25,10,25,14.50
2007,06,25,10,26,14.50
2007,06,25,10,27,14.60
2007,06,25,10,28,14.60
2007,06,25,10,29,14.60
2007,06,25,10,30,14.70
2007,06,25,10,31,14.70
2007,06,25,10,32,14.70
2007,06,25,10,33,14.60
2007,06,25,10,34,14.60
2007,06,25,10,35,14.70
2007,06,25,10,36,14.70
2007,06,25,10,37,14.70
2007,06,25,10,38,14.60
2007,06,25,10,39,14.60
2007,06,25,10,40,14.60
2007,06,25,10,41,14.70
2007,06,25,10,42,14.80
2007,06,25,10,43,15.00
2007,06,25,10,44,15.00
2007,06,25,10,45,15.20
2007,06,25,10,46,15.30
2007,06,25,10,47,15.30
2007,06,25,10,48,15.30
2007,06,25,10,49,15.30
2007,06,25,10,50,15.20
2007,06,25,10,51,15.30
2007,06,25,10,52,15.30
2007,06,25,10,53,15.40
2007,06,25,10,54,15.50
2007,06,25,10,55,15.50
2007,06,25,10,56,15.50
2007,06,25,10,57,15.50
2007,06,25,10,58,15.60
2007,06,25,10,59,15.60
2007,06,25,11,00,15.60
2007,06,25,11,01,15.70
2007,06,25,11,02,15.70
2007,06,25,11,03,15.70
2007,06,25,11,04,15.50
2007,06,25,11,05,15.40
2007,06,25,11,06,15.50
2007,06,25,11,07,15.60
2007,06,25,11,08,15.60
2007,06,25,11,09,15.60
2007,06,25,11,10,15.60
2007,06,25,11,11,15.70
2007,06,25,11,12,15.70
2007,06,25,11,13,15.70
2007,06,25,11,14,15.60
2007,06,25,11,15,15.60
2007,06,25,11,16,15.50
2007,06,25,11,17,15.50
2007,06,25,11,18,15.50
2007,06,25,11,19,15.60
2007,06,25,11,20,15.60
2007,06,25,11,21,15.60
2007,06,25,11,22,15.60
2007,06,25,11,23,15.60
2007,06,25,11,24,15.60
2007,06,25,11,25,15.70
2007,06,25,11,26,15.80
2007,06,25,11,27,15.80
2007,06,25,11,28,15.90
2007,06,25,11,29,15.90
2007,06,25,11,30,15.90
2007,06,25,11,31,16.00
2007,06,25,11,32,16.10
2007,06,25,11,33,16.10
2007,06,25,11,34,16.10
2007,06,25,11,35,16.10
2007,06,25,11,36,16.10
2007,06,25,11,37,16.10
2007,06,25,11,38,16.10
2007,06,25,11,39,16.10
2007,06,25,11,40,16.10
2007,06,25,11,41,16.10
2007,06,25,11,42,16.10
2007,06,25,11,43,16.10
2007,06,25,11,44,16.00
2007,06,25,11,45,15.90
2007,06,25,11,46,15.90
2007,06,25,11,47,15.80
2007,06,25,11,48,15.80
2007,06,25,11,49,15.80
2007,06,25,11,50,15.80
2007,06,25,11,51,15.80
2007,06,25,11,52,15.80
2007,06,25,11,53,15.80
2007,06,25,11,54,15.80
2007,06,25,11,55,15.80
2007,06,25,11,56,15.80
2007,06,25,11,57,15.80
2007,06,25,11,58,15.70
2007,06,25,11,59,15.70
2007,06,25,12,00,15.70
2007,06,25,12,01,15.70
2007,06,25,12,02,15.70
2007,06,25,12,03,15.60
2007,06,25,12,04,15.60
2007,06,25,12,05,15.60
2007,06,25,12,06,15.60
2007,06,25,12,07,15.50
2007,06,25,12,08,15.50
2007,06,25,12,09,15.50
2007,06,25,12,10,15.50
2007,06,25,12,11,15.40
2007,06,25,12,12,15.40
2007,06,25,12,13,15.50
2007,06,25,12,14,15.50
2007,06,25,12,15,15.60
2007,06,25,12,16,15.70
2007,06,25,12,17,15.70
2007,06,25,12,18,15.70
2007,06,25,12,19,15.70
2007,06,25,12,20,15.70
2007,06,25,12,21,15.70
2007,06,25,12,22,15.80
2007,06,25,12,23,15.90
2007,06,25,12,24,15.90
2007,06,25,12,25,15.90
2007,06,25,12,26,15.90
2007,06,25,12,27,15.80
2007,06,25,12,28,15.80
2007,06,25,12,29,15.80
2007,06,25,12,30,15.80
2007,06,25,12,31,15.80
2007,06,25,12,32,15.80
2007,06,25,12,33,15.80
2007,06,25,12,34,15.80
2007,06,25,12,35,15.80
2007,06,25,12,36,15.80
2007,06,25,12,37,15.90
2007,06,25,12,38,15.90
2007,06,25,12,39,16.00
2007,06,25,12,40,16.00
2007,06,25,12,41,16.00
2007,06,25,12,42,16.00
2007,06,25,12,43,16.00
2007,06,25,12,44,16.10
2007,06,25,12,45,16.10
2007,06,25,12,46,16.10
2007,06,25,12,47,16.10
2007,06,25,12,48,16.00
2007,06,25,12,49,16.00
2007,06,25,12,50,16.00
2007,06,25,12,51,16.00
2007,06,25,12,52,16.10
2007,06,25,12,53,16.00
2007,06,25,12,54,16.00
2007,06,25,12,55,15.90
2007,06,25,12,56,15.80
2007,06,25,12,57,15.80
2007,06,25,12,58,15.80
2007,06,25,12,59,15.80
2007,06,25,13,00,15.80
2007,06,25,13,01,15.80
2007,06,25,13,02,15.90
2007,06,25,13,03,16.00
2007,06,25,13,04,16.00
2007,06,25,13,05,16.00
2007,06,25,13,06,16.10
2007,06,25,13,07,16.10
2007,06,25,13,08,16.10
2007,06,25,13,09,16.20
2007,06,25,13,10,16.30
2007,06,25,13,11,16.30
2007,06,25,13,12,16.30
2007,06,25,13,13,16.30
2007,06,25,13,14,16.30
2007,06,25,13,15,16.30
2007,06,25,13,16,16.40
2007,06,25,13,17,16.40
2007,06,25,13,18,16.40
2007,06,25,13,19,16.40
2007,06,25,13,20,16.50
2007,06,25,13,21,16.50
2007,06,25,13,22,16.50
2007,06,25,13,23,16.50
2007,06,25,13,24,16.50
2007,06,25,13,25,16.40
2007,06,25,13,26,16.30
2007,06,25,13,27,16.30
2007,06,25,13,28,16.30
2007,06,25,13,29,16.20
2007,06,25,13,30,16.30
2007,06,25,13,31,16.30
2007,06,25,13,32,16.40
2007,06,25,13,33,16.40
2007,06,25,13,34,16.40
2007,06,25,13,35,16.40
2007,06,25,13,36,16.50
2007,06,25,13,37,16.50
2007,06,25,13,38,16.60
2007,06,25,13,39,16.60
2007,06,25,13,40,16.60
2007,06,25,13,41,16.70
2007,06,25,13,42,16.70
2007,06,25,13,43,16.70
2007,06,25,13,44,16.70
2007,06,25,13,45,16.80
2007,06,25,13,46,16.90
2007,06,25,13,47,16.90
2007,06,25,13,48,16.90
2007,06,25,13,49,16.90
2007,06,25,13,50,17.00
2007,06,25,13,51,17.00
2007,06,25,13,52,17.10
2007,06,25,13,53,17.00
2007,06,25,13,54,17.00
2007,06,25,13,55,16.90
2007,06,25,13,56,17.00
2007,06,25,13,57,17.00
2007,06,25,13,58,17.00
2007,06,25,13,59,17.00
2007,06,25,14,00,17.00
2007,06,25,14,01,17.00
2007,06,25,14,02,17.10
2007,06,25,14,03,17.00
2007,06,25,14,04,17.10
2007,06,25,14,05,17.10
2007,06,25,14,06,17.20
2007,06,25,14,07,17.20
2007,06,25,14,08,17.20
2007,06,25,14,09,17.10
2007,06,25,14,10,17.10
2007,06,25,14,11,17.00
2007,06,25,14,12,17.00
2007,06,25,14,13,17.00
2007,06,25,14,14,17.00
2007,06,25,14,15,17.10
2007,06,25,14,16,17.10
2007,06,25,14,17,17.10
2007,06,25,14,18,17.10
2007,06,25,14,19,17.10
2007,06,25,14,20,17.00
2007,06,25,14,21,17.00
2007,06,25,14,22,17.00
2007,06,25,14,23,17.00
2007,06,25,14,24,17.00
2007,06,25,14,25,17.00
2007,06,25,14,26,17.00
2007,06,25,14,27,17.00
2007,06,25,14,28,17.00
2007,06,25,14,29,17.10
2007,06,25,14,30,17.10
2007,06,25,14,31,17.20
2007,06,25,14,32,17.20
2007,06,25,14,33,17.20
2007,06,25,14,34,17.20
2007,06,25,14,35,17.30
2007,06,25,14,36,17.20
2007,06,25,14,37,17.20
2007,06,25,14,38,17.20
2007,06,25,14,39,17.30
2007,06,25,14,40,17.30
2007,06,25,14,41,17.30
2007,06,25,14,42,17.20
2007,06,25,14,43,17.20
2007,06,25,14,44,17.20
2007,06,25,14,45,17.10
2007,06,25,14,46,17.20
2007,06,25,14,47,17.20
2007,06,25,14,48,17.20
2007,06,25,14,49,17.30
2007,06,25,14,50,17.40
2007,06,25,14,51,17.50
2007,06,25,14,52,17.60
2007,06,25,14,53,17.70
2007,06,25,14,54,17.80
2007,06,25,14,55,17.80
2007,06,25,14,56,17.90
2007,06,25,14,57,17.90
2007,06,25,14,58,17.90
2007,06,25,14,59,17.80
2007,06,25,15,00,17.70
2007,06,25,15,01,17.60
2007,06,25,15,02,17.50
2007,06,25,15,03,17.50
2007,06,25,15,04,17.50
2007,06,25,15,05,17.40
2007,06,25,15,06,17.30
2007,06,25,15,07,17.20
2007,06,25,15,08,17.10
2007,06,25,15,09,17.00
2007,06,25,15,10,16.90
2007,06,25,15,11,16.80
2007,06,25,15,12,16.60
2007,06,25,15,13,16.50
2007,06,25,15,14,16.40
2007,06,25,15,15,16.40
2007,06,25,15,16,16.40
2007,06,25,15,17,16.40
2007,06,25,15,18,16.40
2007,06,25,15,19,16.30
2007,06,25,15,20,16.40
2007,06,25,15,21,16.50
2007,06,25,15,22,16.60
2007,06,25,15,23,16.80
2007,06,25,15,24,16.80
2007,06,25,15,25,16.80
2007,06,25,15,26,16.90
2007,06,25,15,27,16.80
2007,06,25,15,28,16.80
2007,06,25,15,29,16.70
2007,06,25,15,30,16.60
2007,06,25,15,31,16.50
2007,06,25,15,32,16.40
2007,06,25,15,33,16.40
2007,06,25,15,34,16.40
2007,06,25,15,35,16.30
2007,06,25,15,36,16.30
2007,06,25,15,37,16.30
2007,06,25,15,38,16.30
2007,06,25,15,39,16.30
2007,06,25,15,40,16.30
2007,06,25,15,41,16.30
2007,06,25,15,42,16.30
2007,06,25,15,43,16.30
2007,06,25,15,44,16.30
2007,06,25,15,45,16.40
2007,06,25,15,46,16.40
2007,06,25,15,47,16.50
2007,06,25,15,48,16.60
2007,06,25,15,49,16.70
2007,06,25,15,50,16.80
2007,06,25,15,51,16.80
2007,06,25,15,52,16.90
2007,06,25,15,53,16.90
2007,06,25,15,54,16.90
2007,06,25,15,55,16.90
2007,06,25,15,56,16.90
2007,06,25,15,57,16.80
2007,06,25,15,58,16.80
2007,06,25,15,59,16.90
2007,06,25,16,00,17.00
2007,06,25,16,01,17.10
2007,06,25,16,02,17.20
2007,06,25,16,03,17.30
2007,06,25,16,04,17.30
2007,06,25,16,05,17.20
2007,06,25,16,06,17.20
2007,06,25,16,07,17.10
2007,06,25,16,08,17.10
2007,06,25,16,09,17.10
2007,06,25,16,10,17.10
2007,06,25,16,11,17.10
2007,06,25,16,12,17.10
2007,06,25,16,13,17.10
2007,06,25,16,14,17.10
2007,06,25,16,15,17.00
2007,06,25,16,16,17.00
2007,06,25,16,17,17.00
2007,06,25,16,18,17.10
2007,06,25,16,19,17.10
2007,06,25,16,20,17.20
2007,06,25,16,21,17.20
2007,06,25,16,22,17.30
2007,06,25,16,23,17.30
2007,06,25,16,24,17.30
2007,06,25,16,25,17.30
2007,06,25,16,26,17.20
2007,06,25,16,27,17.20
2007,06,25,16,28,17.10
2007,06,25,16,29,17.10
2007,06,25,16,30,17.00
2007,06,25,16,31,17.00
2007,06,25,16,32,16.90
2007,06,25,16,33,16.80
2007,06,25,16,34,16.70
2007,06,25,16,35,16.70
2007,06,25,16,36,16.70
2007,06,25,16,37,16.70
2007,06,25,16,38,16.60
2007,06,25,16,39,16.60
2007,06,25,16,40,16.60
2007,06,25,16,41,16.60
2007,06,25,16,42,16.60
2007,06,25,16,43,16.60
2007,06,25,16,44,16.60
2007,06,25,16,45,16.60
2007,06,25,16,46,16.60
2007,06,25,16,47,16.60
2007,06,25,16,48,16.60
2007,06,25,16,49,16.50
2007,06,25,16,50,16.50
2007,06,25,16,51,16.50
2007,06,25,16,52,16.60
2007,06,25,16,53,16.70
2007,06,25,16,54,16.80
2007,06,25,16,55,16.90
2007,06,25,16,56,17.00
2007,06,25,16,57,17.10
2007,06,25,16,58,17.20
2007,06,25,16,59,17.20
2007,06,25,17,00,17.30
2007,06,25,17,01,17.40
2007,06,25,17,02,17.50
2007,06,25,17,03,17.50
2007,06,25,17,04,17.60
2007,06,25,17,05,17.60
2007,06,25,17,06,17.70
2007,06,25,17,07,17.70
2007,06,25,17,08,17.70
2007,06,25,17,09,17.70
2007,06,25,17,10,17.80
2007,06,25,17,11,17.80
2007,06,25,17,12,17.70
2007,06,25,17,13,17.70
2007,06,25,17,14,17.70
2007,06,25,17,15,17.70
2007,06,25,17,16,17.80
2007,06,25,17,17,17.90
2007,06,25,17,18,18.00
2007,06,25,17,19,18.00
2007,06,25,17,20,18.00
2007,06,25,17,21,18.10
2007,06,25,17,22,18.10
2007,06,25,17,23,18.10
2007,06,25,17,24,18.00
2007,06,25,17,25,18.00
2007,06,25,17,26,17.90
2007,06,25,17,27,17.80
2007,06,25,17,28,17.70
2007,06,25,17,29,17.70
2007,06,25,17,30,17.60
2007,06,25,17,31,17.60
2007,06,25,17,32,17.60
2007,06,25,17,33,17.60
2007,06,25,17,34,17.60
2007,06,25,17,35,17.60
2007,06,25,17,36,17.70
2007,06,25,17,37,17.70